This is the latest recevied weather packets stored in our database for station/object VK4HIT-13. If no packets are shown the sender has not sent any weather packets the latest 10 day(s).
| Time | Temp. | Humidity | Pressure | Rain* | Wind** | Luminosity | Snow |
|---|---|---|---|---|---|---|---|
| 1777530881 | 17.22° C | 91% | 1024.9 hPa | 0.76 mm | - | - | - |
| 1777530581 | 17.78° C | 92% | 1024.8 hPa | 0.76 mm | - | - | - |
| 1777530281 | 17.78° C | 91% | 1024.8 hPa | 0.76 mm | - | - | - |
| 1777529981 | 17.78° C | 91% | 1024.8 hPa | 0.76 mm | - | - | - |
| 1777529681 | 17.78° C | 91% | 1024.8 hPa | 0.76 mm | - | - | - |
| 1777529381 | 17.78° C | 91% | 1024.7 hPa | 0.76 mm | - | - | - |
| 1777529081 | 17.78° C | 90% | 1024.7 hPa | 0.76 mm | - | - | - |
| 1777528781 | 18.33° C | 90% | 1024.8 hPa | 0.51 mm | - | - | - |
| 1777528481 | 18.33° C | 90% | 1024.9 hPa | 0.51 mm | - | - | - |
| 1777528181 | 18.33° C | 90% | 1024.8 hPa | 0.51 mm | - | - | - |
| 1777527881 | 18.89° C | 90% | 1024.8 hPa | 0.51 mm | - | - | - |
| 1777527581 | 18.89° C | 89% | 1024.7 hPa | 0.25 mm | - | - | - |
| 1777527281 | 18.89° C | 87% | 1024.5 hPa | 0 mm | - | - | - |
| 1777526981 | 18.89° C | 89% | 1024.5 hPa | 0 mm | - | - | - |
| 1777526681 | 18.89° C | 88% | 1024.5 hPa | 0 mm | - | - | - |
| 1777526381 | 18.33° C | 89% | 1024.4 hPa | 0 mm | - | - | - |
| 1777526081 | 18.33° C | 90% | 1024.3 hPa | 0 mm | - | - | - |
| 1777525781 | 18.33° C | 89% | 1024.4 hPa | 0 mm | - | - | - |
| 1777525481 | 18.33° C | 89% | 1024.3 hPa | 0.25 mm | - | - | - |
| 1777525181 | 18.33° C | 89% | 1024.3 hPa | 0.51 mm | - | - | - |
| 1777524881 | 18.33° C | 90% | 1024.4 hPa | 0.51 mm | - | - | - |
| 1777524581 | 18.33° C | 91% | 1024.4 hPa | 1.02 mm | - | - | - |
| 1777524281 | 17.78° C | 91% | 1024.4 hPa | 1.02 mm | - | - | - |
| 1777523981 | 17.78° C | 91% | 1024.3 hPa | 1.02 mm | - | - | - |
| 1777523681 | 17.78° C | 90% | 1024.4 hPa | 1.02 mm | - | - | - |
* Rain latest hour (hover to see other rain measurements)
** Current wind speed in m/s (hover to see current wind gust speed)